sat.trackr.live / text

‹ back to catalog

EUTELSAT 115 WEST B

NORAD 40425 · 2015-010B

PAYLOAD ACTIVE UNKNOWN

§ Identity

Operator
Country
EUTE
Launch date
2015-03-02
Launch site
AFETR
Launch vehicle
Mass (kg)
RCS (m²)
5.48

Purposes: comms

External: N2YO · Heavens-Above · Gunter

§ Orbital elements

Epoch: 2026-05-24T16:55:52.652064Z

Period
1,436.13 min
Inclination
0.0099°
Eccentricity
0.0000142
Mean motion
1.00269784 rev/d
Perigee alt
35,786.6 km
Apogee alt
35,787.8 km
Semi-major
42,165.3 km
B*
0.0000e+0
RAAN
140.0314°
Arg perigee
305.5978°
Mean anomaly
295.7517°
Rev number
4,115

§ Raw data

EUTELSAT 115 WEST B1 40425U 15010B   26144.70547051 -.00000028  00000+0  00000+0 0  99972 40425   0.0099 140.0314 0000142 305.5978 295.7517  1.00269784 41156

JSON: /api/v1/satellites/40425 · /tle

For live sub-satellite position, see the globe view (requires WebGL).

§ Visibility from observer

Set your observer location to see the next 7 days of passes ≥ 10°. The values pass through the URL so the page stays shareable.

No JS? Fill the form by hand. The geolocation button needs JavaScript.